Regional Weather Roundup
Issued by NWS State College, PA

Home | Current Version | Previous Version | Text Only | Print | Product List | Glossary Off
Versions: 1 2 3 4 5 6 7 8 9 10 11 12 13 14 15 16 17 18 19 20 21 22 23 24 25 26 27 28 29 30 31 32 33 34 35 36 37 38 39 40 41 42 43 44 45 46 47 48 49 50

000
ASUS41 KCTP 011903
RWRCTP

REGIONAL WEATHER ROUNDUP
NATIONAL WEATHER SERVICE STATE COLLEGE PA
300 PM EDT MON JUN 01 2015

Note: "fair" indicates few or no clouds below 12,000 feet with no
significant weather and/or obstructions to visibility.

* = STATION THAT DOES NOT REPORT PRECIPITATION /E.G. RAIN...SNOW...ETC/
    THUNDER OR FOG.

PAZ002>004-007>009-013>016-020>023-029>032-012000-
WESTERN PENNSYLVANIA

CITY           SKY/WX    TMP DP  RH WIND       PRES   REMARKS
ERIE           CLOUDY    51  45  79 NE13      30.19S
MEADVILLE      CLOUDY    49  45  86 N8        30.17S
FRANKLIN*      CLOUDY    50  45  81 NW5       30.16S
NEW CASTLE     CLOUDY    51  50  97 NW9       30.17S
BEAVER COUNTY  CLOUDY    54  48  82 N6        30.14
BUTLER*        CLOUDY    54  48  82 N3        30.15S
PITTSBURGH INT CLOUDY    55  47  74 N8        30.13S
PITTSBURGH     CLOUDY    56  46  69 CALM      30.11F
INDIANA*       CLOUDY    55  52  88 N5        30.15F
LATROBE        CLOUDY    57  54  88 VRB6      30.14F
WASHINGTON CO* CLOUDY    55  48  76 NW7       30.14F
$$

PAZ004>006-010>012-017>019-024>028-033>037-041-042-045-046-049>053-012000-
CENTRAL PENNSYLVANIA

CITY           SKY/WX    TMP DP  RH WIND       PRES   REMARKS
BRADFORD       CLOUDY    52  48  86 NE8       30.13S
DUBOIS         CLOUDY    56  50  80 NW8       30.11S
CLEARFIELD     CLOUDY    60  53  77 NW7       30.10S
JOHNSTOWN      CLOUDY    56  51  84 NW7       30.10F
ALTOONA        PTSUNNY   69  57  65 NW13      30.08S
STATE COLLEGE  PTSUNNY   64  55  72 W7        30.07
WILLIAMSPORT   PTSUNNY   74  59  59 W13       30.02F
SELINSGROVE    CLOUDY    73  69  87 E7        30.02S
FT INDIANTOWN  LGT RAIN  67  65  93 E6        30.03S FOG
CAPITAL CITY   LGT RAIN  73  69  87 E9        30.00F FOG
HARRISBURG     LGT RAIN  71  67  87 NE9       29.99F FOG
YORK           PTSUNNY   76  70  82 VRB5      29.99F
$$

PAZ038>040-043-044-047-048-054-055-060>062-067>071-012000-
EASTERN PENNSYLVANIA

CITY           SKY/WX    TMP DP  RH WIND       PRES   REMARKS
SCRANTON       CLOUDY    65  59  81 NE5       30.06S
MOUNT POCONO   FOG       56  54  93 E7        30.10F VSB 1/4
ALLENTOWN      CLOUDY    63  59  87 E9        30.07S FOG
QUAKERTOWN*    CLOUDY    61  61 100 E8        30.07F
READING        CLOUDY    65  61  87 NE8       30.03F FOG
LANCASTER      TSTM      70  66  87 NE10      30.02R FOG
COATESVILLE    HVY RAIN  66  66 100 E12       30.03F VSB 1/2
POTTSTOWN      CLOUDY    63  62  97 NE9       30.05F
BLUE BELL      CLOUDY    66  63  88 NE8       30.04F
DOYLESTOWN     CLOUDY    59  58  96 NE6       30.05F
WILLOW GROVE   NOT AVBL
NORTH PHILA    CLOUDY    67  60  78 E12       30.06F
PHILADELPHIA   PTSUNNY   76  66  71 NE14G21   30.01F
$$


USA.gov is the U.S. government's official web portal to all federal, state and local government web resources and services.